Hourly Data Report for October 13, 2015

All times are specified in Local Standard Time (LST). Add 1 hour to adjust for Daylight Saving Time where and when it is observed.

FREDERICTON
NEW BRUNSWICK

45°52'08.000" N
66°32'14.000" W
20.70 m
8101505
71700
YFC

Download Data

Hourly Data (October 2015)
Hourly Data Report for October 13, 2015
Temp Definition
°C
Dew Point Temp Definition
°C
Rel Hum Definition
%
Wind Dir Definition
10's deg

Wind Spd Definition
km/h
Visibility Definition
km
Stn Press Definition
kPa
Hmdx Definition


Wind Chill Definition


Weather Definition


TIME
00:00 Legend Double Dagger 9.9 9.3 96 15 4 16.1 100.66     LegendNANA
01:00 Legend Double Dagger 10.7 9.8 94 17 5 16.1 100.65     LegendNANA
02:00 Legend Double Dagger 10.8 9.9 94 9 5 16.1 100.63     LegendNANA
03:00 Legend Double Dagger 10.3 9.5 95 7 5 12.9 100.57     LegendNANA
04:00 Legend Double Dagger 7.9 7.5 97 8 4 0.4 100.54     Fog
05:00 Legend Double Dagger 8.8 8.5 98   0 6.4 100.55     Fog
06:00 Legend Double Dagger 9.6 9.3 98 LegendMM 4 11.3 100.51     LegendNANA
07:00 Legend Double Dagger 10.8 10.4 97 14 8 16.1 100.50     LegendNANA
08:00 Legend Double Dagger 11.2 10.3 94 LegendMM 4 11.3 100.50     LegendNANA
09:00 Legend Double Dagger 12.3 11.0 92 LegendMM 4 16.1 100.44     LegendNANA
10:00 Legend Double Dagger 13.1 11.6 90 7 5 16.1 100.35     LegendNANA
11:00 Legend Double Dagger 13.3 11.8 90 8 9 16.1 100.27     Rain
12:00 Legend Double Dagger 13.2 12.4 95 5 8 2.4 100.15     Rain,Fog
13:00 Legend Double Dagger 13.7 13.1 96 6 5 3.2 100.00     Fog
14:00 Legend Double Dagger 14.2 13.7 97 7 9 3.2 99.87     Rain,Fog
15:00 Legend Double Dagger 14.7 14.2 97 7 8 2.0 99.75     Rain,Fog
16:00 Legend Double Dagger 14.8 14.3 97 9 8 3.2 99.69     Moderate Rain,Fog
17:00 Legend Double Dagger 14.8 14.3 97 10 5 11.3 99.58     Rain
18:00 Legend Double Dagger 14.6 14.1 97 LegendMM 4 4.8 99.55     Fog
19:00 Legend Double Dagger 14.6 14.3 98 LegendMM 4 1.6 99.51     Fog
20:00 Legend Double Dagger 14.6 14.3 98 19 5 4.8 99.52     Fog
21:00 Legend Double Dagger 14.4 14.1 98 16 9 0.8 99.49     Fog
22:00 Legend Double Dagger 14.4 14.1 98 18 5 0.8 99.50     Fog
23:00 Legend Double Dagger 14.9 14.6 98 18 13 12.9 99.47     LegendNANA

Notes on Data Quality.

Legend

  • E = Estimated
  • M = Missing
  • NA = Not Available
  • ‡ = Partner data that is not subject to review by the National Climate Archives
Date modified: